Location: Unspecified
(0.0000°N, 0.0000°E)
Time: 15:23:24
(UTC+00:00)

PAYLOAD C - Pass Details

Date: 10 June 2023
Orbit: 809 x 823 km, 98.7° (Epoch: 21 September)

Event Time Altitude Azimuth Distance (km) Brightness Sun altitude
Rises 18:40:27 0° 192° (SSW) 3,352 ? -9.4°
Reaches altitude 10° 18:43:15 10° 206° (SSW) 2,416 ? -10.1°
Maximum altitude 18:47:22 23° 257° (WSW) 1,675 ? -11.0°
Drops below altitude 10° 18:51:30 10° 308° (NW) 2,402 ? -11.9°
Sets 18:54:17 0° 322° (NW) 3,328 ? -12.6°
